Location: ???????
(60.4260°N, 46.9069°E)
Time: 21:52:28
(UTC+00:00)

Cosmos 1536 - Pass Details

Date: 30 March 2020
Orbit: 541 x 558 km, 82.5° (Epoch: 25 May)

Event Time Altitude Azimuth Distance (km) Brightness Sun altitude
Rises 00:33:34 0° 341° (NNW) 2,744 6.6 -13.3°
Reaches altitude 10° 00:35:53 10° 333° (NNW) 1,841 5.6 -13.0°
Maximum altitude 00:39:32 33° 268° (W) 936 3.5 -12.6°
Enters shadow 00:42:05 17° 213° (SSW) 1,447 4.4 -12.4°
